Location: Sawmill Trailhead
(33.5800°N, 116.4497°W)
Time: 05:00:57
(UTC-08:00)

ISS - Visible Passes

Search period start: 16 February 2019 00:00
Search period end: 26 February 2019 00:00
Orbit: 403 x 411 km, 51.6° (Epoch: 16 February)

Date Brightness Start Highest point End Pass type
(mag) Time Alt. Az. Time Alt. Az. Time Alt. Az.
21 Feb -1.3 05:19:20 10° S 05:21:55 22° SE 05:24:31 10° ENE visible
22 Feb -0.6 04:29:57 10° SE 04:30:37 10° SE 04:31:16 10° ESE visible
23 Feb -3.6 05:12:56 17° SW 05:15:15 70° SE 05:18:30 10° NE visible
24 Feb -1.9 04:24:18 29° ESE 04:24:18 29° ESE 04:26:44 10° ENE visible
25 Feb -3.2 05:08:10 35° WNW 05:08:42 37° NW 05:11:46 10° NNE visible
